DLH452 EDDM-KLAX

Flight info

Callsign DLH452
Flight time N/A
Altitude 34000
Route INPUD3E INPUD Y102 UPALA Z109 BAMKI DCT TUSKA DCT VAXIT DCT ARTEX DCT LAMRO DCT FORTY DCT DEVBI DCT RATSU/M083F340 DCT 6430N02000W/M083F360 66N030W 67N040W 67N050W DCT DARUB/N0486F360 DCT 66N070W 64N080W 6030N09000W/N0486F380 55N100W DCT DURUR DCT BIL DCT FFU/N0475F400 DCT WINEN/N0470F390 Q73 EEVUN/N0476F400 Q73 HAKMN ANJLL4
Aircraft A388/J-SADE2E3FGHIJ3J4J5M1RWXY/LB1D1

Departure

Time N/A
Airport Munich Airport (EDDM)

Arrival

Time 2026-04-21 22:49
Airport Los Angeles International Airport (KLAX)
Time Latitude Longitude Altitude Speed Heading
2026-04-21 19:24 53.48784 -101.84612 37834 ft 450 kts 225°
2026-04-21 19:24 53.46208 -101.87613 37813 ft 450 kts 225°
2026-04-21 19:25 53.41059 -101.93602 37790 ft 451 kts 225°
2026-04-21 19:25 53.35915 -101.99562 37817 ft 449 kts 224°
2026-04-21 19:26 53.30780 -102.05498 37814 ft 449 kts 224°
2026-04-21 19:26 53.25640 -102.11422 37810 ft 448 kts 224°
2026-04-21 19:27 53.20504 -102.17324 37812 ft 448 kts 224°
2026-04-21 19:27 53.15366 -102.23210 37810 ft 448 kts 224°
2026-04-21 19:28 53.10226 -102.29081 37773 ft 448 kts 224°
2026-04-21 19:28 53.05095 -102.34923 37816 ft 447 kts 224°
2026-04-21 19:29 52.99967 -102.40748 37813 ft 447 kts 224°
2026-04-21 19:29 52.94831 -102.46564 37827 ft 447 kts 224°
2026-04-21 19:30 52.89686 -102.52371 37829 ft 447 kts 224°
2026-04-21 19:30 52.84535 -102.58170 37840 ft 448 kts 224°
2026-04-21 19:31 52.79416 -102.63915 37842 ft 448 kts 224°
2026-04-21 19:31 52.74258 -102.69687 37866 ft 447 kts 224°
2026-04-21 19:32 52.69102 -102.75439 37856 ft 447 kts 224°
2026-04-21 19:32 52.63948 -102.81175 37853 ft 447 kts 224°
2026-04-21 19:33 52.58795 -102.86890 37849 ft 446 kts 224°
2026-04-21 19:33 52.53642 -102.92589 37814 ft 446 kts 224°
2026-04-21 19:34 52.48500 -102.98262 37839 ft 446 kts 224°
2026-04-21 19:34 52.43342 -103.03937 37829 ft 446 kts 223°
2026-04-21 19:35 52.35596 -103.12426 37855 ft 447 kts 223°
2026-04-21 19:36 52.30428 -103.18070 37858 ft 447 kts 223°
2026-04-21 19:36 52.25248 -103.23709 37837 ft 447 kts 223°
2026-04-21 19:37 52.20080 -103.29320 37855 ft 448 kts 223°
2026-04-21 19:37 52.14894 -103.34936 37860 ft 448 kts 223°
2026-04-21 19:38 52.09705 -103.40537 37870 ft 447 kts 223°
2026-04-21 19:38 52.05396 -103.45176 37873 ft 447 kts 223°
2026-04-21 19:39 51.99340 -103.51680 37870 ft 446 kts 223°
2026-04-21 19:39 51.95035 -103.56289 37843 ft 446 kts 223°
2026-04-21 19:40 51.89856 -103.61820 37849 ft 446 kts 222°
2026-04-21 19:40 51.84677 -103.67336 37847 ft 446 kts 222°
2026-04-21 19:41 51.79488 -103.72848 37838 ft 446 kts 222°
2026-04-21 19:41 51.74301 -103.78341 37852 ft 446 kts 222°
2026-04-21 19:42 51.69108 -103.83826 37837 ft 446 kts 222°
2026-04-21 19:42 51.63954 -103.89254 37841 ft 446 kts 222°
2026-04-21 19:43 51.58754 -103.94715 37837 ft 447 kts 222°
2026-04-21 19:43 51.53548 -104.00168 37834 ft 447 kts 221°
2026-04-21 19:44 51.48335 -104.05613 37832 ft 447 kts 221°
2026-04-21 19:44 51.43154 -104.11009 37831 ft 447 kts 221°
2026-04-21 19:45 51.37938 -104.16428 37823 ft 447 kts 221°
2026-04-21 19:45 51.32711 -104.21842 37829 ft 448 kts 221°
2026-04-21 19:46 51.27476 -104.27251 37835 ft 448 kts 221°
2026-04-21 19:46 51.22232 -104.32653 37835 ft 449 kts 221°
2026-04-21 19:47 51.16984 -104.38044 37820 ft 449 kts 221°
2026-04-21 19:47 51.11747 -104.43408 37816 ft 447 kts 221°
2026-04-21 19:48 51.06508 -104.48761 37815 ft 447 kts 221°
2026-04-21 19:48 51.01267 -104.54102 37819 ft 447 kts 221°
2026-04-21 19:49 50.96035 -104.59418 37809 ft 447 kts 221°
2026-04-21 19:49 50.90789 -104.64735 37814 ft 447 kts 220°
2026-04-21 19:50 50.85575 -104.70005 37810 ft 447 kts 220°
2026-04-21 19:50 50.80332 -104.75295 37816 ft 447 kts 220°
2026-04-21 19:51 50.75083 -104.80580 37811 ft 447 kts 220°
2026-04-21 19:51 50.69834 -104.85850 37816 ft 447 kts 220°
2026-04-21 19:52 50.64508 -104.90868 37811 ft 452 kts 216°
2026-04-21 19:52 50.58967 -104.95536 37791 ft 451 kts 216°
2026-04-21 19:53 50.53457 -105.00254 37802 ft 451 kts 216°
2026-04-21 19:53 50.47942 -105.04960 37816 ft 451 kts 216°
2026-04-21 19:54 50.42434 -105.09641 37813 ft 450 kts 216°
2026-04-21 19:54 50.36925 -105.14309 37812 ft 450 kts 216°
2026-04-21 19:55 50.31414 -105.18963 37805 ft 450 kts 216°
2026-04-21 19:55 50.25936 -105.23574 37803 ft 450 kts 216°
2026-04-21 19:56 50.20425 -105.28200 37805 ft 450 kts 216°
2026-04-21 19:56 50.14909 -105.32819 37813 ft 449 kts 215°
2026-04-21 19:57 50.09434 -105.37391 37816 ft 450 kts 215°
2026-04-21 19:57 50.03919 -105.41985 37819 ft 449 kts 215°
2026-04-21 19:58 49.98404 -105.46567 37823 ft 449 kts 215°
2026-04-21 19:58 49.92885 -105.51140 37823 ft 449 kts 215°
2026-04-21 19:59 49.87370 -105.55698 37825 ft 449 kts 215°
2026-04-21 19:59 49.81849 -105.60249 37797 ft 449 kts 214°
2026-04-21 20:00 49.76328 -105.64789 37809 ft 450 kts 214°
2026-04-21 20:00 49.70797 -105.69324 37819 ft 450 kts 214°
2026-04-21 20:01 49.65257 -105.73855 37821 ft 451 kts 214°
2026-04-21 20:01 49.59715 -105.78376 37818 ft 451 kts 214°
2026-04-21 20:02 49.54169 -105.82889 37806 ft 451 kts 214°
2026-04-21 20:02 49.48619 -105.87393 37810 ft 451 kts 214°
2026-04-21 20:03 49.43055 -105.91897 37825 ft 452 kts 214°
2026-04-21 20:03 49.37480 -105.96398 37846 ft 453 kts 213°
2026-04-21 20:04 49.31934 -106.00864 37850 ft 453 kts 213°
2026-04-21 20:04 49.26345 -106.05354 37835 ft 454 kts 213°
2026-04-21 20:05 49.20748 -106.09838 37843 ft 454 kts 213°
2026-04-21 20:05 49.15144 -106.14316 37849 ft 455 kts 213°
2026-04-21 20:06 49.09533 -106.18788 37854 ft 455 kts 213°
2026-04-21 20:06 49.03919 -106.23251 37838 ft 455 kts 213°
2026-04-21 20:07 48.98304 -106.27703 37849 ft 455 kts 213°
2026-04-21 20:07 48.92682 -106.32150 37850 ft 455 kts 213°
2026-04-21 20:08 48.87055 -106.36589 37840 ft 455 kts 213°
2026-04-21 20:08 48.81436 -106.41011 37846 ft 455 kts 212°
2026-04-21 20:09 48.75812 -106.45425 37839 ft 455 kts 212°
2026-04-21 20:09 48.70187 -106.49829 37839 ft 455 kts 212°
2026-04-21 20:10 48.64581 -106.54207 37841 ft 455 kts 212°
2026-04-21 20:10 48.58957 -106.58588 37840 ft 455 kts 212°
2026-04-21 20:11 48.53326 -106.62963 37812 ft 455 kts 212°
2026-04-21 20:11 48.47737 -106.67295 37837 ft 454 kts 212°
2026-04-21 20:12 48.42120 -106.71638 37837 ft 454 kts 212°
2026-04-21 20:12 48.36499 -106.75973 37838 ft 454 kts 212°
2026-04-21 20:13 48.30882 -106.80294 37834 ft 453 kts 212°
2026-04-21 20:13 48.25265 -106.84603 37838 ft 452 kts 212°
2026-04-21 20:14 48.19668 -106.88888 37822 ft 452 kts 212°
2026-04-21 20:14 48.14071 -106.93161 37821 ft 451 kts 212°
2026-04-21 20:15 48.08472 -106.97427 37820 ft 451 kts 212°
2026-04-21 20:15 48.02878 -107.01677 37801 ft 451 kts 212°
2026-04-21 20:16 47.97286 -107.05915 37835 ft 450 kts 212°
2026-04-21 20:16 47.91701 -107.10139 37831 ft 450 kts 212°
2026-04-21 20:17 47.86119 -107.14349 37821 ft 450 kts 212°
2026-04-21 20:17 47.80539 -107.18548 37829 ft 449 kts 212°
2026-04-21 20:18 47.75905 -107.22026 37847 ft 448 kts 212°
2026-04-21 20:18 47.69406 -107.26894 37833 ft 447 kts 212°
2026-04-21 20:19 47.63851 -107.31044 37832 ft 446 kts 212°
2026-04-21 20:19 47.58308 -107.35175 37822 ft 446 kts 212°
2026-04-21 20:20 47.52763 -107.39298 37825 ft 445 kts 211°
2026-04-21 20:20 47.47268 -107.43373 37822 ft 444 kts 211°
2026-04-21 20:21 47.41741 -107.47463 37826 ft 444 kts 211°
2026-04-21 20:21 47.36213 -107.51544 37834 ft 444 kts 211°
2026-04-21 20:22 47.30678 -107.55621 37812 ft 444 kts 211°
2026-04-21 20:22 47.22382 -107.61713 37818 ft 445 kts 211°
2026-04-21 20:23 47.16847 -107.65766 37825 ft 444 kts 211°
2026-04-21 20:23 47.11310 -107.69810 37826 ft 444 kts 211°
2026-04-21 20:24 47.05774 -107.73844 37826 ft 444 kts 211°
2026-04-21 20:24 47.00253 -107.77857 37829 ft 442 kts 211°
2026-04-21 20:25 46.94745 -107.81853 37829 ft 441 kts 211°
2026-04-21 20:25 46.89241 -107.85837 37831 ft 441 kts 211°
2026-04-21 20:26 46.83747 -107.89804 37825 ft 440 kts 211°
2026-04-21 20:26 46.78263 -107.93754 37826 ft 439 kts 211°
2026-04-21 20:27 46.72787 -107.97689 37815 ft 438 kts 211°
2026-04-21 20:27 46.67316 -108.01613 37812 ft 438 kts 211°
2026-04-21 20:28 46.61877 -108.05504 37803 ft 438 kts 211°
2026-04-21 20:28 46.56415 -108.09404 37775 ft 437 kts 210°
2026-04-21 20:29 46.50946 -108.13299 37793 ft 438 kts 210°
2026-04-21 20:29 46.45470 -108.17191 37801 ft 439 kts 210°
2026-04-21 20:30 46.40013 -108.21061 37813 ft 440 kts 210°
2026-04-21 20:30 46.34507 -108.24956 37828 ft 441 kts 210°
2026-04-21 20:31 46.28989 -108.28851 37817 ft 442 kts 210°
2026-04-21 20:31 46.23460 -108.32745 37827 ft 442 kts 209°
2026-04-21 20:32 46.18837 -108.35993 37826 ft 443 kts 209°
2026-04-21 20:32 46.13297 -108.39879 37834 ft 443 kts 209°
2026-04-21 20:33 46.07797 -108.43728 37822 ft 442 kts 209°
2026-04-21 20:33 46.02265 -108.47591 37850 ft 442 kts 209°
2026-04-21 20:34 45.96728 -108.51451 37879 ft 442 kts 209°
2026-04-21 20:34 45.91191 -108.55304 37895 ft 442 kts 209°
2026-04-21 20:35 45.85662 -108.59144 37893 ft 441 kts 209°
2026-04-21 20:35 45.80127 -108.62942 37883 ft 441 kts 207°
2026-04-21 20:36 45.74533 -108.66579 37879 ft 441 kts 208°
2026-04-21 20:36 45.68972 -108.70287 37797 ft 441 kts 208°
2026-04-21 20:37 45.63406 -108.73971 37835 ft 440 kts 208°
2026-04-21 20:37 45.57853 -108.77629 37825 ft 439 kts 207°
2026-04-21 20:38 45.52317 -108.81265 37821 ft 437 kts 207°
2026-04-21 20:38 45.46793 -108.84884 37814 ft 437 kts 207°
2026-04-21 20:39 45.41276 -108.88489 37807 ft 436 kts 207°
2026-04-21 20:39 45.35773 -108.92076 37822 ft 434 kts 207°
2026-04-21 20:40 45.30284 -108.95646 37810 ft 434 kts 207°
2026-04-21 20:40 45.24796 -108.99208 37803 ft 433 kts 207°
2026-04-21 20:41 45.19353 -109.02733 37813 ft 433 kts 207°
2026-04-21 20:41 45.13873 -109.06275 37808 ft 432 kts 207°
2026-04-21 20:42 45.08402 -109.09804 37824 ft 432 kts 207°
2026-04-21 20:42 45.02927 -109.13328 37822 ft 432 kts 207°
2026-04-21 20:43 44.97448 -109.16846 37871 ft 433 kts 207°
2026-04-21 20:43 44.91964 -109.20361 37843 ft 433 kts 206°
2026-04-21 20:44 44.86471 -109.23874 37851 ft 434 kts 206°
2026-04-21 20:44 44.80958 -109.27393 37844 ft 435 kts 206°
2026-04-21 20:45 44.75434 -109.30910 37911 ft 436 kts 206°
2026-04-21 20:45 44.69907 -109.34421 37903 ft 435 kts 206°
2026-04-21 20:46 44.64392 -109.37921 37899 ft 435 kts 206°
2026-04-21 20:46 44.58869 -109.41414 37911 ft 435 kts 206°
2026-04-21 20:47 44.53394 -109.44872 37900 ft 434 kts 206°
2026-04-21 20:47 44.47852 -109.48365 37897 ft 434 kts 206°
2026-04-21 20:48 44.42382 -109.51804 37912 ft 433 kts 206°
2026-04-21 20:48 44.36876 -109.55254 37929 ft 432 kts 206°
2026-04-21 20:49 44.31388 -109.58696 37924 ft 433 kts 206°
2026-04-21 20:49 44.25886 -109.62138 37960 ft 435 kts 206°
2026-04-21 20:50 44.20351 -109.65590 37940 ft 436 kts 206°
2026-04-21 20:50 44.14807 -109.69041 37958 ft 437 kts 205°
2026-04-21 20:51 44.09247 -109.72494 37974 ft 438 kts 206°
2026-04-21 20:51 44.03676 -109.75949 37979 ft 439 kts 205°
2026-04-21 20:52 43.98095 -109.79401 37973 ft 440 kts 205°
2026-04-21 20:52 43.92501 -109.82852 37973 ft 441 kts 205°
2026-04-21 20:53 43.86900 -109.86303 38005 ft 441 kts 205°
2026-04-21 20:53 43.81290 -109.89750 37982 ft 440 kts 205°
2026-04-21 20:54 43.75700 -109.93179 37988 ft 439 kts 205°
2026-04-21 20:54 43.70125 -109.96593 37983 ft 438 kts 205°
2026-04-21 20:55 43.64568 -109.99988 37979 ft 436 kts 205°
2026-04-21 20:55 43.59015 -110.03374 37997 ft 436 kts 205°
2026-04-21 20:56 43.53475 -110.06751 37984 ft 435 kts 204°
2026-04-21 20:56 43.47935 -110.10113 37971 ft 435 kts 204°
2026-04-21 20:57 43.42391 -110.13471 37948 ft 435 kts 204°
2026-04-21 20:57 43.36855 -110.16820 37926 ft 434 kts 204°
2026-04-21 20:58 43.31321 -110.20160 37915 ft 434 kts 204°
2026-04-21 20:58 43.25786 -110.23495 37950 ft 434 kts 204°
2026-04-21 20:59 43.20250 -110.26823 37948 ft 434 kts 204°
2026-04-21 20:59 43.14751 -110.30122 37934 ft 434 kts 204°
2026-04-21 21:00 43.09225 -110.33431 37940 ft 433 kts 204°
2026-04-21 21:00 43.03706 -110.36730 37932 ft 433 kts 204°
2026-04-21 21:01 42.98185 -110.40024 37922 ft 433 kts 204°
2026-04-21 21:01 42.92670 -110.43307 37919 ft 432 kts 204°
2026-04-21 21:02 42.87152 -110.46585 37915 ft 432 kts 204°
2026-04-21 21:02 42.81638 -110.49856 37927 ft 432 kts 204°
2026-04-21 21:03 42.76126 -110.53117 37924 ft 432 kts 204°
2026-04-21 21:03 42.70613 -110.56374 37911 ft 432 kts 203°
2026-04-21 21:04 42.65089 -110.59630 37915 ft 433 kts 204°
2026-04-21 21:04 42.59559 -110.62885 37947 ft 434 kts 203°
2026-04-21 21:05 42.54018 -110.66139 37955 ft 435 kts 203°
2026-04-21 21:05 42.48461 -110.69395 37941 ft 435 kts 203°
2026-04-21 21:06 42.42933 -110.72628 37941 ft 436 kts 203°
2026-04-21 21:06 42.37341 -110.75895 38334 ft 438 kts 203°
2026-04-21 21:07 42.34548 -110.77523 38856 ft 435 kts 203°
2026-04-21 21:07 42.31768 -110.79142 39188 ft 436 kts 203°
2026-04-21 21:07 42.28983 -110.80762 39534 ft 436 kts 203°
2026-04-21 21:07 42.26191 -110.82386 39828 ft 438 kts 203°
2026-04-21 21:08 42.20585 -110.85640 39901 ft 434 kts 204°
2026-04-21 21:08 42.15039 -110.88853 39883 ft 435 kts 204°
2026-04-21 21:09 42.09476 -110.92070 39868 ft 435 kts 203°
2026-04-21 21:09 42.03921 -110.95276 39870 ft 433 kts 203°
2026-04-21 21:10 41.98377 -110.98470 39865 ft 435 kts 203°
2026-04-21 21:10 41.92791 -111.01681 39865 ft 438 kts 203°
2026-04-21 21:11 41.87181 -111.04901 39881 ft 439 kts 203°
2026-04-21 21:11 41.81557 -111.08121 39887 ft 439 kts 203°
2026-04-21 21:12 41.75940 -111.11332 39882 ft 438 kts 203°
2026-04-21 21:12 41.70376 -111.14507 39892 ft 437 kts 203°
2026-04-21 21:13 41.64832 -111.17664 39879 ft 435 kts 203°
2026-04-21 21:13 41.59268 -111.20828 39855 ft 433 kts 203°
2026-04-21 21:14 41.53731 -111.23969 39850 ft 432 kts 203°
2026-04-21 21:14 41.48200 -111.27101 39904 ft 431 kts 203°
2026-04-21 21:15 41.42677 -111.30223 39915 ft 430 kts 203°
2026-04-21 21:15 41.37169 -111.33330 39914 ft 430 kts 203°
2026-04-21 21:16 41.31666 -111.36429 39912 ft 430 kts 203°
2026-04-21 21:16 41.26155 -111.39527 39892 ft 430 kts 203°
2026-04-21 21:17 41.20633 -111.42626 39873 ft 431 kts 203°
2026-04-21 21:17 41.15095 -111.45727 39834 ft 432 kts 203°
2026-04-21 21:18 41.09543 -111.48831 39821 ft 434 kts 203°
2026-04-21 21:18 41.03984 -111.51932 39844 ft 434 kts 203°
2026-04-21 21:19 40.98418 -111.55033 39833 ft 434 kts 203°
2026-04-21 21:19 40.92874 -111.58115 39843 ft 434 kts 203°
2026-04-21 21:20 40.87304 -111.61206 39853 ft 434 kts 203°
2026-04-21 21:20 40.81771 -111.64271 39859 ft 434 kts 203°
2026-04-21 21:21 40.76197 -111.67353 39867 ft 434 kts 203°
2026-04-21 21:21 40.70616 -111.70433 39887 ft 436 kts 203°
2026-04-21 21:22 40.65043 -111.73503 39916 ft 435 kts 203°
2026-04-21 21:22 40.59456 -111.76575 39900 ft 435 kts 203°
2026-04-21 21:23 40.53879 -111.79636 39896 ft 434 kts 203°
2026-04-21 21:23 40.49257 -111.82170 39871 ft 433 kts 203°
2026-04-21 21:24 40.43708 -111.85209 39863 ft 432 kts 203°
2026-04-21 21:24 40.38169 -111.88237 39875 ft 432 kts 203°
2026-04-21 21:25 40.32626 -111.91262 39892 ft 431 kts 202°
2026-04-21 21:25 40.27097 -111.94310 39881 ft 431 kts 205°
2026-04-21 21:26 40.21780 -111.97940 39879 ft 431 kts 208°
2026-04-21 21:26 40.16484 -112.01633 39861 ft 432 kts 208°
2026-04-21 21:27 40.11172 -112.05304 39849 ft 432 kts 207°
2026-04-21 21:27 40.05848 -112.08965 39815 ft 433 kts 207°
2026-04-21 21:28 40.00525 -112.12617 39823 ft 433 kts 207°
2026-04-21 21:29 39.92516 -112.18101 39824 ft 434 kts 207°
2026-04-21 21:29 39.87176 -112.21749 39831 ft 434 kts 207°
2026-04-21 21:30 39.81831 -112.25393 39827 ft 433 kts 207°
2026-04-21 21:30 39.76493 -112.29026 39823 ft 433 kts 208°
2026-04-21 21:31 39.71189 -112.32631 39822 ft 433 kts 208°
2026-04-21 21:31 39.65847 -112.36255 39813 ft 433 kts 208°
2026-04-21 21:32 39.60510 -112.39869 39803 ft 433 kts 208°
2026-04-21 21:32 39.55168 -112.43480 39805 ft 433 kts 208°
2026-04-21 21:33 39.49834 -112.47079 39777 ft 433 kts 208°
2026-04-21 21:33 39.44487 -112.50681 39949 ft 433 kts 208°
2026-04-21 21:34 39.39140 -112.54276 39952 ft 433 kts 208°
2026-04-21 21:34 39.36463 -112.56075 39796 ft 434 kts 208°
2026-04-21 21:34 39.33783 -112.57873 39796 ft 434 kts 208°
2026-04-21 21:35 39.28428 -112.61460 39786 ft 434 kts 208°
2026-04-21 21:35 39.23068 -112.65046 39787 ft 434 kts 208°
2026-04-21 21:36 39.17707 -112.68626 39791 ft 434 kts 208°
2026-04-21 21:36 39.12338 -112.72206 39793 ft 435 kts 208°
2026-04-21 21:37 39.06965 -112.75781 39794 ft 435 kts 208°
2026-04-21 21:37 39.01598 -112.79347 39796 ft 435 kts 208°
2026-04-21 21:38 38.96216 -112.82916 39799 ft 435 kts 208°
2026-04-21 21:38 38.90837 -112.86477 39804 ft 435 kts 208°
2026-04-21 21:39 38.85456 -112.90034 39812 ft 435 kts 208°
2026-04-21 21:39 38.80066 -112.93590 39794 ft 435 kts 208°
2026-04-21 21:40 38.74677 -112.97139 39813 ft 436 kts 208°
2026-04-21 21:40 38.69285 -113.00685 39815 ft 436 kts 208°
2026-04-21 21:41 38.63935 -113.04196 39907 ft 436 kts 208°
2026-04-21 21:41 38.58539 -113.07733 39935 ft 436 kts 208°
2026-04-21 21:42 38.53141 -113.11263 39967 ft 436 kts 208°
2026-04-21 21:42 38.47748 -113.14786 39970 ft 435 kts 208°
2026-04-21 21:43 38.42357 -113.18301 39956 ft 435 kts 208°
2026-04-21 21:43 38.36974 -113.21804 39931 ft 434 kts 208°
2026-04-21 21:44 38.31591 -113.25302 39903 ft 434 kts 208°
2026-04-21 21:44 38.26209 -113.28794 39872 ft 434 kts 208°
2026-04-21 21:45 38.20858 -113.32259 39837 ft 434 kts 208°
2026-04-21 21:45 38.15471 -113.35742 39820 ft 435 kts 208°
2026-04-21 21:46 38.10079 -113.39222 39823 ft 435 kts 208°
2026-04-21 21:46 38.04683 -113.42698 39819 ft 435 kts 208°
2026-04-21 21:47 37.99293 -113.46167 39842 ft 434 kts 208°
2026-04-21 21:47 37.93764 -113.49197 39832 ft 434 kts 202°
2026-04-21 21:48 37.87941 -113.51322 39833 ft 436 kts 195°
2026-04-21 21:48 37.81974 -113.52750 39817 ft 436 kts 194°
2026-04-21 21:49 37.76028 -113.54175 39830 ft 435 kts 194°
2026-04-21 21:49 37.70087 -113.55607 39828 ft 435 kts 194°
2026-04-21 21:50 37.64147 -113.57036 39829 ft 434 kts 194°
2026-04-21 21:50 37.58207 -113.58463 39810 ft 435 kts 194°
2026-04-21 21:51 37.52252 -113.59891 39810 ft 437 kts 194°
2026-04-21 21:51 37.46270 -113.61322 39827 ft 438 kts 194°
2026-04-21 21:52 37.40266 -113.62757 39839 ft 440 kts 194°
2026-04-21 21:52 37.34232 -113.64195 39855 ft 441 kts 195°
2026-04-21 21:53 37.28201 -113.65630 39863 ft 441 kts 195°
2026-04-21 21:53 37.22177 -113.67062 39902 ft 440 kts 195°
2026-04-21 21:54 37.16161 -113.68489 39910 ft 440 kts 195°
2026-04-21 21:54 37.10156 -113.69912 39924 ft 438 kts 195°
2026-04-21 21:55 37.04239 -113.71594 39917 ft 433 kts 201°
2026-04-21 21:55 36.98609 -113.74154 39898 ft 429 kts 205°
2026-04-21 21:56 36.93088 -113.76861 39898 ft 428 kts 205°
2026-04-21 21:56 36.87537 -113.79553 39839 ft 427 kts 205°
2026-04-21 21:57 36.81995 -113.82231 39834 ft 426 kts 205°
2026-04-21 21:57 36.76474 -113.84895 39804 ft 425 kts 205°
2026-04-21 21:58 36.70953 -113.87557 39815 ft 425 kts 205°
2026-04-21 21:58 36.65430 -113.90212 39793 ft 425 kts 205°
2026-04-21 21:59 36.60021 -113.93122 39787 ft 424 kts 208°
2026-04-21 21:59 36.54646 -113.96168 39795 ft 425 kts 208°
2026-04-21 22:00 36.49233 -113.99176 39809 ft 427 kts 208°
2026-04-21 22:00 36.43795 -114.02170 39806 ft 428 kts 207°
2026-04-21 22:01 36.38532 -114.05579 39811 ft 426 kts 214°
2026-04-21 22:01 36.33505 -114.09480 39802 ft 426 kts 214°
2026-04-21 22:02 36.28464 -114.13358 39797 ft 427 kts 214°
2026-04-21 22:02 36.23406 -114.17232 39796 ft 427 kts 214°
2026-04-21 22:03 36.18346 -114.21103 39797 ft 427 kts 214°
2026-04-21 22:03 36.13300 -114.24964 39797 ft 427 kts 215°
2026-04-21 22:04 36.08536 -114.29316 39762 ft 424 kts 222°
2026-04-21 22:04 36.04317 -114.34385 39763 ft 423 kts 229°
2026-04-21 22:05 36.00427 -114.39835 39768 ft 423 kts 229°
2026-04-21 22:05 35.96516 -114.45258 39786 ft 423 kts 229°
2026-04-21 22:06 35.92590 -114.50680 39805 ft 423 kts 229°
2026-04-21 22:06 35.88696 -114.56050 39816 ft 423 kts 229°
2026-04-21 22:07 35.84770 -114.61455 39763 ft 423 kts 229°
2026-04-21 22:07 35.80842 -114.66856 39838 ft 423 kts 229°
2026-04-21 22:08 35.76908 -114.72257 39838 ft 423 kts 229°
2026-04-21 22:08 35.72973 -114.77650 39867 ft 423 kts 229°
2026-04-21 22:09 35.69038 -114.83033 39864 ft 424 kts 229°
2026-04-21 22:09 35.65099 -114.88414 39868 ft 423 kts 229°
2026-04-21 22:10 35.61165 -114.93800 39871 ft 423 kts 229°
2026-04-21 22:10 35.57232 -114.99175 39869 ft 423 kts 229°
2026-04-21 22:11 35.53304 -115.04534 39912 ft 422 kts 229°
2026-04-21 22:11 35.50044 -115.08971 39902 ft 421 kts 228°
2026-04-21 22:12 35.46052 -115.14202 39893 ft 419 kts 227°
2026-04-21 22:12 35.42043 -115.19403 39880 ft 419 kts 228°
2026-04-21 22:13 35.38052 -115.24600 39881 ft 419 kts 228°
2026-04-21 22:13 35.34060 -115.29799 39888 ft 419 kts 228°
2026-04-21 22:14 35.30068 -115.34989 39905 ft 418 kts 228°
2026-04-21 22:14 35.26081 -115.40165 39904 ft 418 kts 228°
2026-04-21 22:15 35.22097 -115.45329 39903 ft 417 kts 228°
2026-04-21 22:15 35.18114 -115.50483 39898 ft 417 kts 228°
2026-04-21 22:16 35.14129 -115.55631 39889 ft 417 kts 228°
2026-04-21 22:16 35.10143 -115.60764 39883 ft 416 kts 228°
2026-04-21 22:17 35.06172 -115.65839 39868 ft 417 kts 228°
2026-04-21 22:17 35.02162 -115.70957 39869 ft 417 kts 228°
2026-04-21 22:18 34.98155 -115.76067 39875 ft 418 kts 228°
2026-04-21 22:18 34.94129 -115.81195 39872 ft 418 kts 228°
2026-04-21 22:19 34.90102 -115.86316 39867 ft 419 kts 227°
2026-04-21 22:19 34.86071 -115.91436 39860 ft 419 kts 227°
2026-04-21 22:20 34.82036 -115.96550 39873 ft 419 kts 228°
2026-04-21 22:20 34.80028 -115.99092 39645 ft 414 kts 228°
2026-04-21 22:20 34.78043 -116.01603 39218 ft 409 kts 228°
2026-04-21 22:20 34.76080 -116.04089 38747 ft 405 kts 229°
2026-04-21 22:21 34.74145 -116.06555 38244 ft 401 kts 229°
2026-04-21 22:21 34.72237 -116.08991 37697 ft 397 kts 229°
2026-04-21 22:21 34.70335 -116.11418 37157 ft 395 kts 229°
2026-04-21 22:21 34.68436 -116.13838 36641 ft 396 kts 228°
2026-04-21 22:22 34.66528 -116.16267 36132 ft 398 kts 228°
2026-04-21 22:22 34.64612 -116.18701 35635 ft 399 kts 228°
2026-04-21 22:22 34.62705 -116.21123 35140 ft 398 kts 228°
2026-04-21 22:22 34.60788 -116.23554 34669 ft 397 kts 228°
2026-04-21 22:23 34.58886 -116.25965 34186 ft 395 kts 228°
2026-04-21 22:23 34.56989 -116.28368 33692 ft 392 kts 227°
2026-04-21 22:23 34.55114 -116.30742 33160 ft 387 kts 227°
2026-04-21 22:23 34.53263 -116.33083 32659 ft 383 kts 227°
2026-04-21 22:24 34.51424 -116.35409 32142 ft 381 kts 227°
2026-04-21 22:24 34.49592 -116.37723 31643 ft 379 kts 227°
2026-04-21 22:24 34.47767 -116.40029 31133 ft 377 kts 227°
2026-04-21 22:24 34.45951 -116.42320 30637 ft 377 kts 227°
2026-04-21 22:25 34.44143 -116.44607 30163 ft 374 kts 228°
2026-04-21 22:25 34.42493 -116.46979 29678 ft 372 kts 232°
2026-04-21 22:25 34.41015 -116.49585 29103 ft 370 kts 237°
2026-04-21 22:25 34.39784 -116.52261 28596 ft 368 kts 241°
2026-04-21 22:26 34.38651 -116.55074 28051 ft 366 kts 242°
2026-04-21 22:26 34.37540 -116.57789 27540 ft 364 kts 242°
2026-04-21 22:26 34.36411 -116.60525 27029 ft 363 kts 242°
2026-04-21 22:26 34.35285 -116.63251 26603 ft 360 kts 242°
2026-04-21 22:27 34.34175 -116.65937 26166 ft 354 kts 242°
2026-04-21 22:27 34.33085 -116.68576 25757 ft 348 kts 242°
2026-04-21 22:27 34.32027 -116.71186 25343 ft 345 kts 242°
2026-04-21 22:27 34.30984 -116.73792 24936 ft 344 kts 242°
2026-04-21 22:28 34.29943 -116.76396 24618 ft 344 kts 242°
2026-04-21 22:28 34.28902 -116.78995 24271 ft 343 kts 243°
2026-04-21 22:28 34.27860 -116.81589 23928 ft 342 kts 242°
2026-04-21 22:28 34.26818 -116.84172 23598 ft 341 kts 242°
2026-04-21 22:29 34.25783 -116.86738 23211 ft 339 kts 242°
2026-04-21 22:29 34.24754 -116.89287 22861 ft 334 kts 242°
2026-04-21 22:29 34.23745 -116.91787 22468 ft 329 kts 242°
2026-04-21 22:29 34.22741 -116.94270 22081 ft 329 kts 242°
2026-04-21 22:30 34.21738 -116.96746 21687 ft 327 kts 242°
2026-04-21 22:30 34.20838 -116.99263 21308 ft 327 kts 248°
2026-04-21 22:30 34.20137 -117.01882 20883 ft 326 kts 249°
2026-04-21 22:30 34.19442 -117.04492 20470 ft 326 kts 249°
2026-04-21 22:31 34.18743 -117.07079 20063 ft 323 kts 249°
2026-04-21 22:31 34.18046 -117.09641 19654 ft 320 kts 249°
2026-04-21 22:31 34.17352 -117.12192 19269 ft 319 kts 249°
2026-04-21 22:31 34.16664 -117.14727 18872 ft 317 kts 249°
2026-04-21 22:32 34.15979 -117.17255 18488 ft 317 kts 249°
2026-04-21 22:32 34.15286 -117.19777 18177 ft 315 kts 249°
2026-04-21 22:32 34.14600 -117.22265 17739 ft 312 kts 249°
2026-04-21 22:32 34.13917 -117.24742 17294 ft 310 kts 249°
2026-04-21 22:33 34.13238 -117.27205 16864 ft 308 kts 249°
2026-04-21 22:33 34.12562 -117.29656 16437 ft 307 kts 249°
2026-04-21 22:33 34.11891 -117.32088 16021 ft 306 kts 249°
2026-04-21 22:33 34.11221 -117.34517 15596 ft 302 kts 250°
2026-04-21 22:34 34.10563 -117.36900 15174 ft 297 kts 250°
2026-04-21 22:34 34.09933 -117.39259 14747 ft 293 kts 251°
2026-04-21 22:34 34.09351 -117.41599 14311 ft 290 kts 251°
2026-04-21 22:34 34.08784 -117.43920 13875 ft 286 kts 251°
2026-04-21 22:35 34.08220 -117.46214 13456 ft 285 kts 251°
2026-04-21 22:35 34.07651 -117.48508 13003 ft 286 kts 251°
2026-04-21 22:35 34.07009 -117.50769 12548 ft 284 kts 246°
2026-04-21 22:35 34.06223 -117.52908 12092 ft 283 kts 245°
2026-04-21 22:36 34.04658 -117.57237 11211 ft 281 kts 245°
2026-04-21 22:36 34.03882 -117.59399 10768 ft 281 kts 244°
2026-04-21 22:36 34.03102 -117.61565 10424 ft 275 kts 244°
2026-04-21 22:37 34.02353 -117.63625 10111 ft 271 kts 244°
2026-04-21 22:37 34.01598 -117.65709 9761 ft 272 kts 244°
2026-04-21 22:37 34.00901 -117.67819 9414 ft 271 kts 250°
2026-04-21 22:37 34.00493 -117.70035 9116 ft 271 kts 259°
2026-04-21 22:38 34.00294 -117.72288 8794 ft 270 kts 260°
2026-04-21 22:38 34.00089 -117.74519 8435 ft 264 kts 260°
2026-04-21 22:38 33.99880 -117.76685 8209 ft 259 kts 260°
2026-04-21 22:38 33.99668 -117.78833 7935 ft 258 kts 260°
2026-04-21 22:39 33.99457 -117.80966 7667 ft 256 kts 261°
2026-04-21 22:39 33.99244 -117.83068 7397 ft 255 kts 261°
2026-04-21 22:39 33.99034 -117.85196 7116 ft 254 kts 261°
2026-04-21 22:39 33.98830 -117.87297 6851 ft 252 kts 261°
2026-04-21 22:40 33.98627 -117.89364 6500 ft 244 kts 261°
2026-04-21 22:40 33.98436 -117.91347 6266 ft 233 kts 262°
2026-04-21 22:40 33.98249 -117.93243 6107 ft 225 kts 261°
2026-04-21 22:40 33.98067 -117.95101 5899 ft 223 kts 262°
2026-04-21 22:41 33.97882 -117.96950 5693 ft 223 kts 262°
2026-04-21 22:41 33.97734 -117.98813 5486 ft 224 kts 264°
2026-04-21 22:41 33.97600 -118.00671 5316 ft 222 kts 262°
2026-04-21 22:41 33.97411 -118.02518 5117 ft 222 kts 262°
2026-04-21 22:42 33.97222 -118.04372 4925 ft 224 kts 262°
2026-04-21 22:42 33.97032 -118.06229 4725 ft 223 kts 262°
2026-04-21 22:42 33.96842 -118.08073 4509 ft 220 kts 260°
2026-04-21 22:42 33.96657 -118.09880 4293 ft 216 kts 261°
2026-04-21 22:43 33.96475 -118.11661 4090 ft 211 kts 260°
2026-04-21 22:43 33.96299 -118.13373 3886 ft 202 kts 260°
2026-04-21 22:43 33.96137 -118.14967 3713 ft 177 kts 259°
2026-04-21 22:43 33.95997 -118.16333 3507 ft 156 kts 259°
2026-04-21 22:44 33.95859 -118.17634 3311 ft 159 kts 259°
2026-04-21 22:44 33.95726 -118.18946 3110 ft 156 kts 257°
2026-04-21 22:44 33.95591 -118.20245 2909 ft 156 kts 258°
2026-04-21 22:44 33.95461 -118.21527 2719 ft 151 kts 259°
2026-04-21 22:45 33.95340 -118.22712 2508 ft 136 kts 257°
2026-04-21 22:45 33.95228 -118.23789 2289 ft 127 kts 257°
2026-04-21 22:45 33.95116 -118.24857 2145 ft 127 kts 257°
2026-04-21 22:45 33.95011 -118.25901 1995 ft 127 kts 258°
2026-04-21 22:46 33.94899 -118.26966 1990 ft 130 kts 259°
2026-04-21 22:46 33.94794 -118.28048 1821 ft 129 kts 257°
2026-04-21 22:46 33.94681 -118.29105 1672 ft 126 kts 256°
2026-04-21 22:46 33.94560 -118.30156 1504 ft 128 kts 258°
2026-04-21 22:47 33.94468 -118.31215 1328 ft 125 kts 260°
2026-04-21 22:47 33.94374 -118.32243 1151 ft 124 kts 261°
2026-04-21 22:47 33.94268 -118.33272 987 ft 123 kts 259°
2026-04-21 22:47 33.94149 -118.34339 808 ft 132 kts 261°
2026-04-21 22:48 33.94038 -118.35421 604 ft 125 kts 261°
2026-04-21 22:48 33.93926 -118.36483 415 ft 132 kts 261°
2026-04-21 22:48 33.93822 -118.37551 250 ft 124 kts 257°
2026-04-21 22:48 33.93707 -118.38593 113 ft 126 kts 259°
2026-04-21 22:49 33.93611 -118.39501 102 ft 86 kts 262°
2026-04-21 22:49 33.93552 -118.40080 101 ft 56 kts 263°
2026-04-21 22:49 33.93514 -118.40469 101 ft 38 kts 264°
2026-04-21 22:49 33.93487 -118.40747 98 ft 26 kts 262°
2026-04-21 22:50 33.93484 -118.40983 101 ft 23 kts 282°
2026-04-21 22:50 33.93523 -118.41133 100 ft 13 kts 292°
2026-04-21 22:50 33.93556 -118.41213 100 ft 13 kts 309°
2026-04-21 22:50 33.93639 -118.41266 102 ft 10 kts 350°
2026-04-21 22:51 33.93711 -118.41274 101 ft 10 kts 15°
2026-04-21 22:51 33.93780 -118.41249 100 ft 12 kts 17°
2026-04-21 22:51 33.93818 -118.41237 100 ft 5 kts 23°
2026-04-21 22:51 33.93844 -118.41201 99 ft 8 kts 70°
2026-04-21 22:52 33.93861 -118.41166 100 ft 2 kts 11°
2026-04-21 22:52 33.93892 -118.41166 99 ft 7 kts 354°
2026-04-21 22:52 33.93923 -118.41166 99 ft 4 kts 24°
2026-04-21 22:52 33.93934 -118.41155 101 ft 1 kts 72°
2026-04-21 22:53 33.93937 -118.41129 101 ft 2 kts 83°
2026-04-21 22:53 33.93940 -118.41101 101 ft 1 kts 82°
2026-04-21 22:53 33.93941 -118.41085 101 ft 3 kts 84°
2026-04-21 22:53 33.93943 -118.41069 100 ft 1 kts 84°
2026-04-21 22:54 33.93943 -118.41063 99 ft 0 kts 83°